Terminal Aerodrome Forecast
Issued by NWS Honolulu, HI

Home | Current Version | Previous Version | Text Only | Print | Product List | Glossary On
Versions: 1 2 3 4 5 6 7 8 9 10 11 12 13 14 15 16 17 18 19 20 21 22 23 24 25 26 27 28 29 30 31 32 33 34 35 36 37 38 39 40 41 42 43 44 45 46 47
333
FTPA31 PHFO 301729
TAFHNL
TAF
PHNL 301729Z 3018/0124 06009KT P6SM FEW030 BKN060
     FM302000 07012G20KT P6SM FEW030 SCT050
     FM010500 06009KT P6SM FEW030 SCT050
     FM012000 06014G22KT P6SM FEW030 SCT050=

USA.gov is the U.S. government's official web portal to all federal, state and local government web resources and services.